Time,TemperatureF,DewpointF,PressureIn,WindDirection,WindDirectionDegrees,WindSpeedMPH,WindSpeedGustMPH,Humidity,HourlyPrecipIn,Conditions,Clouds,dailyrainin,SoftwareType,DateUTC
2013-06-05 00:10:00,81.0,74.0,30.02,East,91,4.0,8.0,80,0.00,,,0.00,weatherlink.com 1.10,2013-06-05 04:10:00,
2013-06-05 00:24:00,81.0,75.0,30.02,East,96,4.0,9.0,82,0.00,,,0.00,weatherlink.com 1.10,2013-06-05 04:24:00,
2013-06-05 00:39:00,80.8,75.0,30.03,ESE,102,7.0,8.0,82,0.00,,,0.00,weatherlink.com 1.10,2013-06-05 04:39:00,
2013-06-05 00:54:00,80.6,75.0,30.03,ESE,103,0.0,9.0,83,0.00,,,0.00,weatherlink.com 1.10,2013-06-05 04:54:00,
2013-06-05 01:09:00,80.6,75.0,30.02,East,99,4.0,10.0,82,0.00,,,0.00,weatherlink.com 1.10,2013-06-05 05:09:00,
2013-06-05 01:24:00,80.6,74.0,30.02,East,100,8.0,14.0,81,0.00,,,0.00,weatherlink.com 1.10,2013-06-05 05:24:00,
2013-06-05 01:39:00,80.6,74.0,30.01,East,92,7.0,15.0,80,0.00,,,0.00,weatherlink.com 1.10,2013-06-05 05:39:00,
2013-06-05 01:55:00,80.8,74.0,30.00,East,94,3.0,15.0,80,0.00,,,0.00,weatherlink.com 1.10,2013-06-05 05:55:00,
2013-06-05 02:10:00,80.6,75.0,29.99,East,100,8.0,16.0,82,0.00,,,0.00,weatherlink.com 1.10,2013-06-05 06:10:00,
2013-06-05 02:25:00,80.2,75.0,29.99,ESE,110,3.0,11.0,83,0.01,,,0.01,weatherlink.com 1.10,2013-06-05 06:25:00,
2013-06-05 02:40:00,80.2,75.0,29.98,ESE,112,4.0,13.0,84,0.01,,,0.01,weatherlink.com 1.10,2013-06-05 06:40:00,
2013-06-05 02:55:00,80.4,76.0,29.98,ESE,120,0.0,11.0,85,0.01,,,0.01,weatherlink.com 1.10,2013-06-05 06:55:00,
2013-06-05 03:10:00,80.2,75.0,29.97,ESE,108,0.0,11.0,85,0.01,,,0.01,weatherlink.com 1.10,2013-06-05 07:10:00,
2013-06-05 03:25:00,80.2,75.0,29.97,ESE,116,2.0,8.0,85,0.00,,,0.01,weatherlink.com 1.10,2013-06-05 07:25:00,
2013-06-05 03:40:00,80.2,75.0,29.97,ESE,115,4.0,10.0,84,0.00,,,0.01,weatherlink.com 1.10,2013-06-05 07:40:00,
2013-06-05 03:55:00,80.4,75.0,29.96,ESE,106,1.0,8.0,83,0.00,,,0.01,weatherlink.com 1.10,2013-06-05 07:55:00,
2013-06-05 04:10:00,80.6,75.0,29.96,ESE,107,0.0,5.0,83,0.00,,,0.01,weatherlink.com 1.10,2013-06-05 08:10:00,
2013-06-05 04:25:00,80.6,75.0,29.96,ESE,106,2.0,4.0,84,0.00,,,0.01,weatherlink.com 1.10,2013-06-05 08:25:00,
2013-06-05 04:40:00,80.4,75.0,29.95,ESE,106,4.0,7.0,84,0.00,,,0.01,weatherlink.com 1.10,2013-06-05 08:40:00,
2013-06-05 04:55:00,80.4,75.0,29.95,East,93,7.0,9.0,83,0.00,,,0.01,weatherlink.com 1.10,2013-06-05 08:55:00,
2013-06-05 05:10:00,80.4,75.0,29.94,East,92,3.0,8.0,83,0.00,,,0.01,weatherlink.com 1.10,2013-06-05 09:10:00,
2013-06-05 05:25:00,80.4,75.0,29.93,East,95,0.0,8.0,84,0.00,,,0.01,weatherlink.com 1.10,2013-06-05 09:25:00,
2013-06-05 05:40:00,80.4,75.0,29.94,ESE,110,4.0,8.0,83,0.00,,,0.01,weatherlink.com 1.10,2013-06-05 09:40:00,
2013-06-05 05:55:00,80.4,75.0,29.95,ESE,115,4.0,8.0,82,0.00,,,0.01,weatherlink.com 1.10,2013-06-05 09:55:00,
2013-06-05 06:10:00,80.4,74.0,29.95,East,92,3.0,9.0,81,0.00,,,0.01,weatherlink.com 1.10,2013-06-05 10:10:00,
2013-06-05 06:25:00,80.6,74.0,29.95,East,90,6.0,10.0,81,0.00,,,0.01,weatherlink.com 1.10,2013-06-05 10:25:00,
2013-06-05 06:40:00,80.6,74.0,29.94,East,85,10.0,15.0,81,0.00,,,0.01,weatherlink.com 1.10,2013-06-05 10:40:00,
2013-06-05 06:55:00,80.6,75.0,29.94,East,97,8.0,11.0,82,0.00,,,0.01,weatherlink.com 1.10,2013-06-05 10:55:00,
2013-06-05 07:10:00,80.6,75.0,29.95,East,98,4.0,9.0,82,0.00,,,0.01,weatherlink.com 1.10,2013-06-05 11:10:00,
2013-06-05 07:25:00,80.6,75.0,29.96,East,101,7.0,10.0,82,0.00,,,0.01,weatherlink.com 1.10,2013-06-05 11:25:00,
2013-06-05 07:40:00,80.8,75.0,29.97,ESE,111,3.0,9.0,81,0.00,,,0.01,weatherlink.com 1.10,2013-06-05 11:40:00,
2013-06-05 07:55:00,81.0,75.0,29.97,ESE,109,0.0,8.0,81,0.00,,,0.01,weatherlink.com 1.10,2013-06-05 11:55:00,
2013-06-05 08:10:00,81.0,75.0,29.97,East,96,0.0,10.0,81,0.00,,,0.01,weatherlink.com 1.10,2013-06-05 12:10:00,
2013-06-05 08:25:00,81.0,75.0,29.97,ENE,69,5.0,11.0,81,0.00,,,0.01,weatherlink.com 1.10,2013-06-05 12:25:00,
2013-06-05 08:40:00,81.0,74.0,29.97,East,95,5.0,11.0,80,0.00,,,0.01,weatherlink.com 1.10,2013-06-05 12:40:00,
2013-06-05 08:55:00,81.0,74.0,29.98,East,98,4.0,10.0,80,0.00,,,0.01,weatherlink.com 1.10,2013-06-05 12:55:00,
2013-06-05 09:10:00,81.1,75.0,29.98,East,96,3.0,7.0,81,0.00,,,0.01,weatherlink.com 1.10,2013-06-05 13:10:00,
2013-06-05 09:25:00,81.1,74.0,29.98,East,98,7.0,9.0,80,0.00,,,0.01,weatherlink.com 1.10,2013-06-05 13:25:00,
2013-06-05 09:40:00,81.1,75.0,29.98,East,89,2.0,8.0,81,0.00,,,0.01,weatherlink.com 1.10,2013-06-05 13:40:00,
2013-06-05 09:55:00,81.3,75.0,29.99,ESE,106,0.0,8.0,81,0.00,,,0.01,weatherlink.com 1.10,2013-06-05 13:55:00,
2013-06-05 10:10:00,81.5,75.0,29.99,SE,131,1.0,9.0,81,0.00,,,0.01,weatherlink.com 1.10,2013-06-05 14:10:00,
2013-06-05 10:25:00,81.7,75.0,29.98,ESE,106,4.0,10.0,81,0.00,,,0.01,weatherlink.com 1.10,2013-06-05 14:25:00,
2013-06-05 10:40:00,81.7,75.0,29.98,East,96,5.0,10.0,80,0.00,,,0.01,weatherlink.com 1.10,2013-06-05 14:40:00,
2013-06-05 10:55:00,81.9,75.0,29.98,East,83,8.0,11.0,79,0.00,,,0.01,weatherlink.com 1.10,2013-06-05 14:55:00,
2013-06-05 11:10:00,82.1,75.0,29.99,SE,127,0.0,7.0,79,0.00,,,0.01,weatherlink.com 1.10,2013-06-05 15:10:00,
2013-06-05 11:25:00,82.1,75.0,29.99,SE,135,5.0,10.0,79,0.00,,,0.01,weatherlink.com 1.10,2013-06-05 15:25:00,
2013-06-05 11:40:00,81.9,75.0,29.99,ESE,104,5.0,17.0,80,0.00,,,0.01,weatherlink.com 1.10,2013-06-05 15:40:00,
2013-06-05 11:55:00,81.9,75.0,29.99,East,81,11.0,12.0,80,0.00,,,0.01,weatherlink.com 1.10,2013-06-05 15:55:00,
2013-06-05 12:10:00,81.9,75.0,29.99,East,90,11.0,14.0,80,0.00,,,0.01,weatherlink.com 1.10,2013-06-05 16:10:00,
2013-06-05 12:25:00,81.9,76.0,29.99,East,92,1.0,13.0,81,0.00,,,0.01,weatherlink.com 1.10,2013-06-05 16:25:00,
2013-06-05 12:40:00,81.9,76.0,29.99,East,79,0.0,12.0,81,0.00,,,0.01,weatherlink.com 1.10,2013-06-05 16:40:00,
2013-06-05 12:55:00,82.1,76.0,29.99,NE,45,10.0,11.0,81,0.00,,,0.01,weatherlink.com 1.10,2013-06-05 16:55:00,
2013-06-05 13:10:00,82.1,76.0,29.98,East,90,1.0,14.0,81,0.00,,,0.01,weatherlink.com 1.10,2013-06-05 17:10:00,
2013-06-05 13:25:00,82.5,76.0,29.97,East,98,0.0,9.0,80,0.00,,,0.01,weatherlink.com 1.10,2013-06-05 17:25:00,
2013-06-05 13:40:00,82.7,76.0,29.97,East,91,0.0,13.0,79,0.00,,,0.01,weatherlink.com 1.10,2013-06-05 17:40:00,
2013-06-05 13:55:00,83.1,76.0,29.96,SE,129,4.0,10.0,79,0.00,,,0.01,weatherlink.com 1.10,2013-06-05 17:55:00,
2013-06-05 14:10:00,82.5,75.0,29.96,East,98,3.0,14.0,79,0.00,,,0.01,weatherlink.com 1.10,2013-06-05 18:10:00,
2013-06-05 14:25:00,82.5,76.0,29.96,ESE,111,1.0,10.0,80,0.00,,,0.01,weatherlink.com 1.10,2013-06-05 18:25:00,
2013-06-05 14:40:00,82.7,76.0,29.96,East,92,5.0,15.0,80,0.00,,,0.01,weatherlink.com 1.10,2013-06-05 18:40:00,
2013-06-05 14:55:00,82.7,76.0,29.96,East,93,2.0,11.0,80,0.00,,,0.01,weatherlink.com 1.10,2013-06-05 18:55:00,
2013-06-05 15:10:00,83.1,76.0,29.96,ESE,107,4.0,10.0,80,0.00,,,0.01,weatherlink.com 1.10,2013-06-05 19:10:00,
2013-06-05 15:25:00,82.5,76.0,29.95,East,92,9.0,14.0,81,0.00,,,0.01,weatherlink.com 1.10,2013-06-05 19:25:00,
2013-06-05 15:40:00,82.7,77.0,29.95,East,79,7.0,13.0,82,0.00,,,0.01,weatherlink.com 1.10,2013-06-05 19:40:00,
2013-06-05 15:55:00,82.7,77.0,29.95,East,92,5.0,13.0,82,0.00,,,0.01,weatherlink.com 1.10,2013-06-05 19:55:00,
2013-06-05 16:10:00,82.7,76.0,29.95,East,100,8.0,13.0,81,0.00,,,0.01,weatherlink.com 1.10,2013-06-05 20:10:00,
2013-06-05 16:25:00,82.9,77.0,29.93,East,100,7.0,16.0,81,0.00,,,0.01,weatherlink.com 1.10,2013-06-05 20:25:00,
2013-06-05 16:40:00,82.5,76.0,29.93,ESE,106,7.0,16.0,80,0.00,,,0.01,weatherlink.com 1.10,2013-06-05 20:40:00,
2013-06-05 16:55:00,82.5,76.0,29.93,East,100,4.0,13.0,81,0.00,,,0.01,weatherlink.com 1.10,2013-06-05 20:55:00,
2013-06-05 17:10:00,82.3,76.0,29.92,ENE,75,7.0,14.0,81,0.00,,,0.01,weatherlink.com 1.10,2013-06-05 21:10:00,
2013-06-05 17:25:00,82.3,76.0,29.91,East,96,7.0,13.0,82,0.00,,,0.01,weatherlink.com 1.10,2013-06-05 21:25:00,
2013-06-05 17:40:00,82.1,76.0,29.91,East,81,9.0,15.0,82,0.00,,,0.01,weatherlink.com 1.10,2013-06-05 21:40:00,
2013-06-05 17:55:00,81.9,76.0,29.90,ENE,66,1.0,13.0,83,0.00,,,0.01,weatherlink.com 1.10,2013-06-05 21:55:00,
2013-06-05 18:10:00,81.9,76.0,29.90,ENE,73,14.0,16.0,82,0.00,,,0.01,weatherlink.com 1.10,2013-06-05 22:10:00,
2013-06-05 18:25:00,81.9,76.0,29.90,East,98,5.0,10.0,83,0.00,,,0.01,weatherlink.com 1.10,2013-06-05 22:25:00,
2013-06-05 18:55:00,81.7,76.0,29.90,East,96,8.0,13.0,83,0.00,,,0.01,weatherlink.com 1.10,2013-06-05 22:55:00,
2013-06-05 19:10:00,81.7,76.0,29.90,East,79,9.0,15.0,83,0.00,,,0.01,weatherlink.com 1.10,2013-06-05 23:10:00,
2013-06-05 19:25:00,81.7,77.0,29.90,ESE,104,9.0,16.0,84,0.00,,,0.01,weatherlink.com 1.10,2013-06-05 23:25:00,
2013-06-05 19:40:00,81.3,77.0,29.90,ESE,116,8.0,17.0,85,0.00,,,0.01,weatherlink.com 1.10,2013-06-05 23:40:00,
2013-06-05 19:55:00,81.5,76.0,29.90,ESE,104,1.0,13.0,84,0.00,,,0.01,weatherlink.com 1.10,2013-06-05 23:55:00,
2013-06-05 20:10:00,81.7,76.0,29.90,East,92,11.0,18.0,83,0.00,,,0.01,weatherlink.com 1.10,2013-06-06 00:10:00,
2013-06-05 20:25:00,81.1,76.0,29.90,East,91,5.0,15.0,85,0.01,,,0.02,weatherlink.com 1.10,2013-06-06 00:25:00,
2013-06-05 20:40:00,80.6,76.0,29.90,East,100,5.0,13.0,86,0.01,,,0.02,weatherlink.com 1.10,2013-06-06 00:40:00,
2013-06-05 20:55:00,81.0,77.0,29.91,ESE,106,8.0,11.0,86,0.01,,,0.02,weatherlink.com 1.10,2013-06-06 00:55:00,
2013-06-05 21:10:00,81.3,77.0,29.91,ESE,105,3.0,16.0,86,0.01,,,0.02,weatherlink.com 1.10,2013-06-06 01:10:00,
2013-06-05 21:25:00,81.3,76.0,29.92,ESE,116,2.0,14.0,84,0.00,,,0.02,weatherlink.com 1.10,2013-06-06 01:25:00,
2013-06-05 21:40:00,81.5,76.0,29.92,SE,126,1.0,13.0,84,0.00,,,0.02,weatherlink.com 1.10,2013-06-06 01:40:00,
2013-06-05 21:55:00,81.5,76.0,29.92,East,91,5.0,17.0,83,0.00,,,0.02,weatherlink.com 1.10,2013-06-06 01:55:00,
2013-06-05 22:10:00,81.7,76.0,29.92,East,94,3.0,16.0,83,0.00,,,0.02,weatherlink.com 1.10,2013-06-06 02:10:00,
2013-06-05 22:25:00,81.5,76.0,29.92,East,98,8.0,14.0,82,0.00,,,0.02,weatherlink.com 1.10,2013-06-06 02:25:00,
2013-06-05 22:40:00,81.7,76.0,29.92,East,91,1.0,18.0,82,0.00,,,0.02,weatherlink.com 1.10,2013-06-06 02:40:00,
2013-06-05 22:55:00,81.7,76.0,29.92,East,91,7.0,18.0,82,0.00,,,0.02,weatherlink.com 1.10,2013-06-06 02:55:00,
2013-06-05 23:10:00,81.7,76.0,29.91,East,88,3.0,15.0,83,0.00,,,0.02,weatherlink.com 1.10,2013-06-06 03:10:00,
2013-06-05 23:25:00,81.7,76.0,29.92,East,85,5.0,15.0,82,0.00,,,0.02,weatherlink.com 1.10,2013-06-06 03:25:00,
2013-06-05 23:40:00,81.7,76.0,29.92,ESE,106,9.0,18.0,83,0.00,,,0.02,weatherlink.com 1.10,2013-06-06 03:40:00,
2013-06-05 23:55:00,81.7,76.0,29.91,ESE,111,4.0,13.0,83,0.00,,,0.02,weatherlink.com 1.10,2013-06-06 03:55:00,